www.pogodaiklimat.ru

Погода и климат >> Архив погоды >> Россия >> Вологодская область >> Вологда


АРХИВ ПОГОДЫ в Вологде

Время (UTC), дата Ветер
(напр.,м/с)
 
Видим.   Явления Облачность Т
(С)
Тd
(С)
f
(%)
Тe
(С)
Тes
(С)
Комфортность P
(гПа)
Po
(гПа)
Тmin
(С)
Tmax
(С)
R
(мм)
R24
(мм)
S
(см)
03 13.08 ЮВ 2 20 км 8/0 2000 м
[Ac lent]
+6.6 +5.0 90 +4 +4 очень
холодно
1017.9 1001.8 +4.9
06 13.08 ЮВ 2 20 км 9/6 600 м
[Sc Ac trans]
+14.3 +8.3 67 +14 +15 по сезону 1016.1 1000.5
09 13.08 Ю 3 20 км 9/9 720 м
[Sc]
+15.9 +8.8 63 +15 +16 по сезону 1015.0 999.5
12 13.08 ЮВ 2 20 км 10/10 660 м
[Sc]
+17.2 +10.8 66 +18 +18 по сезону 1013.7 998.3
15 13.08 ЮВ 1 11 км слаб. дождь 10/8
[Frnb As op]
+16.0 +14.3 90 +17 +17 по сезону 1012.6 997.2 +18.1 0.4
18 13.08 ЮВ 2 10 км слаб. дождь 10/8 240 м
[Frnb As op]
+15.0 +13.9 93 +15 +15 по сезону 1011.6 996.1
21 13.08 ЮВ 2 10 км слаб. дождь 10/10 240 м
[Frnb Ns]
+14.3 +13.2 93 +14 +14 тепло 1009.9 994.4
00 14.08 ЮВ 2 10 км слаб. дождь 10/10 210 м
[Frnb Ns]
+14.2 +13.1 93 +14 +14 тепло 1008.1 992.6
03 14.08 СВ 1 2100 м дождь 10/10 300 м
[Frnb Ns]
+14.1 +13.0 93 +14 +14 по сезону 1007.7 992.2 +14.0 30
06 14.08 штиль 0 20 км {дождь} 10/10 450 м
[Sc]
+14.4 +13.3 93 +14 +14 по сезону 1008.6 993.1
09 14.08 СЗ 3 20 км 10/10 540 м
[Sc]
+15.9 +13.8 87 +15 +15 по сезону 1009.8 994.4
12 14.08 З 2 20 км 10/10 600 м
[Sc]
+17.8 +13.9 78 +18 +18 по сезону 1011.6 996.3
15 14.08 Ю 1 20 км 9/6 600 м
[Sc Ac trans]
+19.2 +13.4 69 +22 +22 комфорт 1011.9 996.6 +19.7 1
18 14.08 Ю 1 4000 м дымка 9/6 600 м
[Sc Ac trans]
+14.0 +12.6 91 +14 +14 по сезону 1012.4 996.9
21 14.08 Ю 1 500 м туман 6/3 600 м
[Sc Ac trans]
+11.9 +10.8 93 +12 +12 по сезону 1012.6 996.9
00 15.08 ЮВ 2 2000 м дымка {туман} 8/6 600 м
[Sc Ac trans]
+11.8 +10.7 93 +11 +11 по сезону 1011.3 995.6
03 15.08 ЮВ 2 3800 м слаб. дождь 10/10 200 м
[Sc]
+12.9 +12.0 94 +12 +12 по сезону 1009.8 994.2 +11.2 3
06 15.08 ЮВ 2 20 км в посл. час дождь 10/8 210 м
[Frnb As op]
+14.3 +13.2 93 +14 +14 по сезону 1007.3 991.8
09 15.08 Ю 3 4000 м дождь {морось} 10/8 210 м
[St As op]
+15.1 +14.0 93 +14 +15 прохладно 1003.9 988.5
12 15.08 З 3 20 км в посл. час дождь {морось} 10/10 330 м
[Sc]
+17.3 +14.9 86 +17 +17 по сезону 1005.1 989.9
15 15.08 СЗ 4
{11}
20 км в посл. час ливневой дождь 8/6 600 м
[Cb cap Ac trans]
+15.2 +11.6 79 +14 +14 по сезону 1010.2 994.8 +18.0 5
18 15.08 ЮЗ 1 20 км {ливн. осадки} 8/6 600 м
[Sc Ac trans]
+11.3 +9.7 90 +11 +11 прохладно 1012.8 997.1
21 15.08 Ю 2 20 км 8/3 600 м
[Sc Ac trans]
+10.2 +9.1 93 +9 +9 прохладно 1013.8 998.0
00 16.08 Ю 2 20 км 1/0
[Ci fib]
+9.0 +8.1 94 +7 +7 прохладно 1015.0 999.1
03 16.08 Ю 2 20 км 3/0
[Ci fib]
+9.6 +8.7 94 +8 +8 прохладно 1015.7 999.8 +8.1
06 16.08 З 1 20 км 4/4 1000 м
[Cu hum Ci fib]
+15.8 +11.8 77 +17 +21 тепло 1015.8 1000.3
09 16.08 З 2 20 км 8/8 1000 м
[Cu hum Ci fib]
+18.7 +10.1 57 +20 +22 тепло 1015.5 1000.1
12 16.08 СЗ 1 20 км 8/8 1000 м
[Cu hum Ci fib]
+20.1 +9.2 49 +22 +24 комфорт 1015.4 1000.1
15 16.08 штиль 0 20 км 4/4 1000 м
[Cu hum Ci fib]
+19.0 +11.5 62 +20 +21 тепло 1015.5 1000.2 +21.3
18 16.08 штиль 0 20 км местами туман поземный 3/3 600 м
[Sc diur, vesp]
+11.5 +10.2 92 +11 +11 по сезону 1016.8 1001.0
21 16.08 штиль 0 20 км местами туман поземный 8/0
[Ac trans Ci]
+9.8 +8.7 93 +9 +9 прохладно 1017.6 1001.8
00 17.08 СВ 1 20 км 9/0
[Ac trans]
+9.4 +8.3 93 +9 +9 по сезону 1018.6 1002.7
03 17.08 С 1 20 км туман поземный 1/0
[Ci fib]
+9.1 +8.2 94 +8 +9 прохладно 1019.2 1003.2 +7.3
06 17.08 СВ 1 20 км ясно +17.8 +10.8 64 +19 +26 тепло 1019.5 1004.0
09 17.08 СВ 3 20 км 6/6 600 м
[Cu Sc]
+20.6 +8.5 46 +22 +26 комфорт 1019.4 1004.1
12 17.08 С 2 20 км 6/6 600 м
[Cu Sc]
+21.9 +6.2 36 +23 +25 комфорт 1018.6 1003.3
15 17.08 СВ 2 20 км 6/4 600 м
[Sc diur, vesp Ci fib]
+20.3 +6.9 42 +22 +23 комфорт 1018.2 1002.9 +22.2
18 17.08 СВ 3 20 км 6/4 600 м
[Sc diur, vesp Ci fib]
+15.2 +7.6 60 +15 +15 тепло 1018.7 1003.1
21 17.08 СВ 4 20 км 8/3 600 м
[Sc Ac trans]
+13.6 +7.2 65 +12 +12 по сезону 1018.4 1002.7
00 18.08 СВ 4 20 км 9/6 600 м
[Sc Ac trans]
+12.5 +7.2 70 +11 +11 по сезону 1017.9 1002.2
03 18.08 В 2 20 км 9/6 600 м
[Sc Ac trans]
+12.1 +7.5 73 +11 +11 по сезону 1017.3 1001.5 +11.8
06 18.08 СВ 3 20 км 9/6 600 м
[Sc Ac trans]
+15.6 +9.6 67 +15 +16 по сезону 1016.3 1000.8
09 18.08 В 4 20 км {дождь} 10/10 420 м
[Sc]
+16.7 +11.2 70 +16 +16 по сезону 1015.5 1000.0
12 18.08 СВ 4 10 км слаб. дождь 10/10 420 м
[Sc]
+14.8 +13.4 91 +14 +14 прохладно 1015.6 1000.0
15 18.08 В 3 20 км {дождь} 10/10 420 м
[Sc]
+14.7 +13.2 91 +14 +14 по сезону 1015.3 999.8 +17.2 3
18 18.08 В 3 20 км {дождь} 10/10 300 м
[Sc]
+14.9 +13.4 91 +14 +14 по сезону 1014.6 999.1
21 18.08 В 2 20 км 10/10 330 м
[Sc]
+14.9 +13.6 92 +15 +15 тепло 1014.4 998.9
00 19.08 В 1 6000 м слаб. морось 10/10 300 м
[St]
+15.1 +13.8 92 +16 +16 тепло 1014.3 998.8
03 19.08 ЮВ 1 4000 м дымка 10/10 300 м
[St]
+15.1 +14.1 94 +16 +16 тепло 1014.5 999.0 +14.7 0.0
06 19.08 ЮВ 2 4000 м дымка {дождь} 10/9 270 м
[St As op]
+15.8 +14.8 94 +16 +16 тепло 1014.3 998.8
09 19.08 З 1 20 км {дождь} 10/9 210 м
[St As op]
+16.8 +15.1 90 +18 +18 тепло 1015.2 999.8
12 19.08 СВ 2 20 км {дождь} 10/10 400 м
[Sc]
+19.2 +16.4 84 +21 +21 комфорт 1015.5 1000.2
15 19.08 В 1 20 км 3/0 2000 м
[Ac trans]
+19.7 +15.1 75 +23 +24 комфорт 1016.0 1000.7 +20.4 1
18 19.08 Ю 1 20 км местами туман поземный 6/3 600 м
[Sc Ac trans]
+15.4 +14.3 93 +16 +16 тепло 1017.3 1001.8
21 19.08 Ю 1 20 км местами туман поземный ясно +14.6 +13.6 94 +15 +15 тепло 1017.9 1002.3
00 20.08 Ю 1 20 км дымка ясно +12.4 +11.5 94 +12 +12 по сезону 1018.6 1002.9

 

Местоположение метеостанции Вологда (Вологодская область, Россия): широта 59.32 долгота 39.93 высота над уровнем моря 130 м.

В архиве по умолчанию представлена погода в Вологде за последнюю неделю. Архивные данные за месяц целиком и за предыдущие месяцы, начиная с января 2011 года, Вы можете получить, выбрав интересующий диапазон дат из раскрывающегося списка и нажав кнопку "Ввод!".


*Определитесь, кто Вы:
робот инопланетянин человек

Внимание! Время в таблицах - всемирное. Для получения местного времени необходимо прибавить поправку, которая равна 3 ч.

Смотрите также архив погоды в соседних городах и на ближайших метеорологических станциях:

Погода в Коробово (Вологодская область, Россия) (50 км)
Погода в Владычном (Ярославская область, Россия) (62 км)
Погода в Яршево (Вологодская область, Россия) (103 км)
Погода в Пошехонье (Ярославская область, Россия) (104 км)
Погода в Череповце (Вологодская область, Россия) (112 км)
Погода в Данилове (Ярославская область, Россия) (125 км)
Погода в Вожеге (Вологодская область, Россия) (129 км)
Погода в Буе (Костромская область, Россия) (131 км)
Погода в Белозерске (Вологодская область, Россия) (144 км)
Погода в Рыбинске (Ярославская область, Россия) (154 км)

Пояснения к столбцам:

Ветер - указаны скорость ветра в м/с - средняя за 10 мин, порывы в срок и между сроками (в фигурных скобках) и направление, откуда дует ветер: С - северный, СВ - северо-восточный, В - восточный, ЮВ - юго-восточный, Ю - южный, ЮЗ - юго-западный, З - западный, СЗ - северо-западный.
Видимость - горизонтальная дальность видимости в метрах или километрах. При видимости от 1 до 10 км при отсутствии осадков обычно наблюдается дымка, при ухудшении видимости до 1 км и менее - туман. В сухую погоду видимость может ухудшаться дымом, пылью или мглою.
Явления - указаны атмосферные явления, наблюдавшиеся в срок или в последний час перед сроком; фигурными скобками обозначены явления, наблюдавшиеся между сроками (за 1-3 часа до срока); квадратными скобками обозначены град или гололедные отложения с указанием их диаметра в мм.
Облачность - указаны через наклонную черту общая и нижняя облачность в баллах и высота нижней границы облаков в метрах; квадратными скобками обозначены формы облаков: Ci - перистые, Cs - перисто-слоистые, Cc - перисто-кучевые, Ac - высококучевые, As - высокослоистые, Sc - слоисто-кучевые, Ns - слоисто-дождевые, Cu - кучевые, Cb - кучево-дождевые. Подробнее классификацию облаков см. в Атласе облаков (PDF).
T - Температура воздуха - температура, измеренная на высоте 2 м над землей.
Td - Температура точки росы - температура, при понижении до которой содержащийся в воздухе водяной пар достигнет насыщения.
f - Относительная влажность воздуха - влажноcть воздуха, измеренная на высоте 2 м над землей.
Te - Эффективная температура - температура, которую ощущает одетый по сезону человек в тени. Характеристика душности погоды. При расчете учитывается влияние влажности воздуха и скорости ветра на теплоощущения человека.
Tes - Эффективная температура на солнце - температура, которую ощущает человек, с поправкой на солнечный нагрев. Характеристика знойности погоды. Зависит от высоты солнца над горизонтом, облачности и скорости ветра. Ночью, в пасмурную погоду, а также при ветре 12 м/с и более поправка равна нулю.
P - Атмосферное давление - приведенное к уровню моря атмосферное давление.
Po - Атмосферное давление - измеренное на уровне метеостанции атмосферное давление.
Tmin - Минимальная температура - минимум температуры воздуха на высоте 2 м над землей.
Tmax - Максимальная температура - максимум температуры воздуха на высоте 2 м над землей.
R - Количество осадков - Количество выпавших осадков за период времени, мм. При наведении курсора мыши на число - период времени, за который выпало указанное количество осадков.
R24 - Количество осадков - Количество выпавших осадков за 24 часа, мм.
S - Снежный покров - Высота снежного покрова, см. При наведении курсора мыши на число - состояние снежного покрова и степень покрытия местности в баллах.